Location: Unspecified
(0.0000°N, 0.0000°E)
Time: 09:57:32
(UTC+00:00)

YUBILEINY - Pass Details

Date: 13 December 2017
Orbit: 1478 x 1509 km, 82.5° (Epoch: 18 July)

Event Time Altitude Azimuth Distance (km) Brightness Sun altitude
Rises 02:40:41 0° 179° (S) 4,614 ? -43.4°
Reaches altitude 10° 02:43:34 10° 177° (S) 3,637 ? -42.8°
Enters shadow 02:50:38 60° 151° (SSE) 1,676 ? -41.3°
